Back to catalog

THORAD AGENA D DEB

AlivePO
NORAD 4857·DEBRIS·🇺🇸 United States

Launched Apr 8, 1970 from Vandenberg Space Force Base

Loading…

Next Passes

TLE

Source: Space-Track
1 04857U 70025EM  26228.19036573  .00001396  00000-0  55504-3 0  9993
2 04857  99.7336 141.0014 0043670 296.7987  62.8729 14.30098175831534

Track THORAD AGENA D DEB in real time with AllMySat

Download on the App Store